Location: Unspecified
(42.3650°N, 71.1030°W)
Time: 21:13:30
(UTC+00:00)

Explorer 7 - All Passes

Search period start: 23 June 2024 00:00
Search period end: 03 July 2024 00:00
Orbit: 466 x 622 km, 50.3° (Epoch: 23 June)

Date Brightness Start Highest point End Pass type
(mag) Time Alt. Az. Time Alt. Az. Time Alt. Az.
23 Jun - 13:16:36 10° SE 13:17:08 10° SE 13:17:40 10° ESE daylight
23 Jun - 14:52:10 10° SW 14:56:14 62° SE 15:00:06 10° ENE daylight
23 Jun - 16:32:24 10° W 16:36:05 35° NNW 16:39:36 10° NE daylight
23 Jun - 18:13:17 10° NW 18:16:28 24° N 18:19:33 10° ENE daylight
23 Jun - 19:53:08 10° NW 19:56:45 45° NNE 20:00:16 10° E daylight
23 Jun - 21:32:59 10° WNW 21:36:18 33° SW 21:39:36 10° SSE daylight
24 Jun - 13:07:15 10° SSE 13:09:29 14° SE 13:11:40 10° E daylight
24 Jun - 14:44:34 10° SW 14:48:43 80° SE 14:52:38 10° ENE daylight
24 Jun - 16:25:05 10° W 16:28:40 31° NNW 16:32:06 10° NE daylight
24 Jun - 18:05:52 10° NW 18:09:06 25° N 18:12:13 10° ENE daylight
24 Jun - 19:45:37 10° NW 19:49:17 55° NNE 19:52:53 10° ESE daylight
24 Jun - 21:25:40 10° W 21:28:42 25° SW 21:31:43 10° SSE daylight
25 Jun - 12:58:52 10° S 13:01:50 19° SE 13:04:43 10° E daylight
25 Jun - 14:37:01 10° WSW 14:41:11 81° NNW 14:45:07 10° ENE daylight
25 Jun - 16:17:44 10° WNW 16:21:14 28° NNW 16:24:36 10° NE daylight
25 Jun - 17:58:23 10° NW 18:01:41 26° N 18:04:53 10° ENE daylight
25 Jun - 19:38:03 10° NW 19:41:48 70° NNE 19:45:26 10° ESE daylight
25 Jun - 21:18:28 10° W 21:21:04 18° SW 21:23:39 10° S daylight
26 Jun - 12:50:43 10° S 12:54:12 25° SE 12:57:32 10° E daylight
26 Jun - 14:29:31 10° WSW 14:33:39 66° NNW 14:37:34 10° NE daylight
26 Jun - 16:10:22 10° WNW 16:13:48 27° N 16:17:06 10° NE daylight
26 Jun - 17:50:52 10° NW 17:54:15 28° NNE 17:57:32 10° ENE daylight
26 Jun - 19:30:30 10° WNW 19:34:16 89° NE 19:37:55 10° ESE daylight
26 Jun - 21:11:28 10° W 21:13:24 14° SW 21:15:18 10° SSW daylight
27 Jun - 12:42:44 10° SSW 12:46:32 32° SE 12:50:11 10° ENE daylight
27 Jun - 14:22:02 10° WSW 14:26:07 54° NNW 14:30:00 10° NE daylight
27 Jun - 16:02:58 10° WNW 16:06:22 25° N 16:09:37 10° NE daylight
27 Jun - 17:43:18 10° NW 17:46:48 32° NNE 17:50:10 10° E daylight
27 Jun - 19:22:56 10° WNW 19:26:41 70° SW 19:30:19 10° SE daylight
28 Jun - 12:34:50 10° SSW 12:38:54 42° SE 12:42:45 10° ENE daylight
28 Jun - 14:14:33 10° W 14:18:35 45° NNW 14:22:24 10° NE daylight
28 Jun - 15:55:32 10° WNW 15:58:54 25° N 16:02:09 10° NE daylight
28 Jun - 17:35:42 10° NW 17:39:18 36° NNE 17:42:47 10° E daylight
28 Jun - 19:15:24 10° WNW 19:19:05 52° SW 19:22:39 10° SE daylight
29 Jun - 12:27:02 10° SW 12:31:15 54° SE 12:35:14 10° ENE daylight
29 Jun - 14:07:06 10° W 14:11:03 39° NNW 14:14:48 10° NE daylight
29 Jun - 15:48:03 10° WNW 15:51:26 25° N 15:54:41 10° ENE daylight
29 Jun - 17:28:04 10° NW 17:31:47 42° NNE 17:35:21 10° E daylight
29 Jun - 19:07:52 10° WNW 19:11:25 39° SW 19:14:51 10° SSE daylight
30 Jun - 10:42:28 10° SSE 10:44:25 13° SE 10:46:20 10° ESE daylight
30 Jun - 12:19:17 10° SW 12:23:35 70° SE 12:27:41 10° ENE daylight
30 Jun - 13:59:39 10° W 14:03:30 34° NNW 14:07:11 10° NE daylight
30 Jun - 15:40:32 10° NW 15:43:56 26° N 15:47:13 10° ENE daylight
30 Jun - 17:20:25 10° NW 17:24:14 50° NNE 17:27:52 10° E daylight
30 Jun - 19:00:24 10° WNW 19:03:43 29° SW 19:06:57 10° SSE daylight
01 Jul - 10:33:48 10° S 10:36:38 17° SE 10:39:26 10° E daylight
01 Jul - 12:11:35 10° WSW 12:15:55 88° SSE 12:20:04 10° ENE daylight
01 Jul - 13:52:11 10° WNW 13:55:58 31° NNW 13:59:34 10° NE daylight
01 Jul - 15:32:58 10° NW 15:36:26 27° N 15:39:46 10° ENE daylight
01 Jul - 17:12:45 10° NW 17:16:38 62° NNE 17:20:20 10° ESE daylight
01 Jul - 18:52:59 10° W 18:55:59 22° SW 18:58:54 10° S daylight
02 Jul - 10:25:27 10° S 10:28:52 22° SE 10:32:11 10° E daylight
02 Jul - 12:03:56 10° WSW 12:08:17 75° NNW 12:12:25 10° ENE daylight
02 Jul - 13:44:42 10° WNW 13:48:25 29° N 13:51:57 10° NE daylight
02 Jul - 15:25:21 10° NW 15:28:54 28° N 15:32:18 10° ENE daylight
02 Jul - 17:05:04 10° WNW 17:09:00 78° NNE 17:12:45 10° ESE daylight
02 Jul - 18:45:41 10° W 18:48:12 17° SW 18:50:40 10° S daylight
